| time (UTC) | temp C | wind direction | speed KPH | gust KPH | rain 1hr cm | rain 24hr cm | rain mn cm | humidity % | barometer mb |
| 20260505003435 | 26 | 0 | 0.0 | 1.6 | 0.00 | 0.05 | 0.03 | 87 | 1012.4 |
| 20260505002933 | 26 | 0 | 0.0 | 1.6 | 0.00 | 0.05 | 0.03 | 88 | 1012.6 |
| 20260505002434 | 26 | 0 | 0.0 | 4.8 | 0.00 | 0.05 | 0.03 | 89 | 1012.6 |
| 20260505001933 | 26 | 0 | 0.0 | 4.8 | 0.00 | 0.05 | 0.03 | 90 | 1012.6 |
| 20260505001434 | 26 | 0 | 0.0 | 4.8 | 0.00 | 0.05 | 0.03 | 92 | 1012.8 |
| 20260505000933 | 26 | 0 | 0.0 | 3.2 | 0.00 | 0.05 | 0.03 | 92 | 1012.8 |
| 20260505000434 | 25 | 0 | 0.0 | 3.2 | 0.00 | 0.05 | 0.03 | 93 | 1012.8 |
| 20260504235933 | 25 | 0 | 0.0 | 6.4 | 0.00 | 0.05 | 0.03 | 94 | 1012.8 |
| 20260504235433 | 25 | 0 | 0.0 | 6.4 | 0.00 | 0.05 | 0.03 | 95 | 1012.8 |
| 20260504234934 | 25 | 0 | 0.0 | 1.6 | 0.00 | 0.05 | 0.03 | 96 | 1012.8 |
| 20260504234434 | 25 | 0 | 0.0 | 3.2 | 0.00 | 0.05 | 0.03 | 97 | 1012.9 |
| 20260504233934 | 25 | 0 | 0.0 | 3.2 | 0.00 | 0.05 | 0.03 | 98 | 1012.9 |
| 20260504233433 | 25 | 0 | 0.0 | 3.2 | 0.00 | 0.05 | 0.03 | 98 | 1012.9 |
| 20260504232934 | 25 | 0 | 0.0 | 3.2 | 0.00 | 0.05 | 0.03 | 99 | 1012.8 |
| 20260504232433 | 24 | 0 | 0.0 | 3.2 | 0.00 | 0.05 | 0.03 | 99 | 1012.8 |
| 20260504231933 | 24 | 0 | 0.0 | 3.2 | 0.00 | 0.05 | 0.03 | 99 | 1012.8 |
| 20260504231434 | 24 | 0 | 0.0 | 3.2 | 0.00 | 0.05 | 0.03 | 100 | 1012.9 |
| 20260504230933 | 23 | 0 | 0.0 | 4.8 | 0.00 | 0.05 | 0.03 | 100 | 1012.9 |
| 20260504230433 | 23 | 0 | 0.0 | 4.8 | 0.00 | 0.05 | 0.03 | 100 | 1012.9 |
| 20260504225933 | 23 | 0 | 0.0 | 4.8 | 0.00 | 0.05 | 0.03 | 100 | 1012.9 |
| 20260504225434 | 23 | 0 | 0.0 | 3.2 | 0.00 | 0.05 | 0.03 | 100 | 1012.9 |
| 20260504224933 | 23 | 0 | 0.0 | 3.2 | 0.00 | 0.05 | 0.03 | 100 | 1012.9 |
| 20260504224434 | 23 | 0 | 0.0 | 1.6 | 0.00 | 0.05 | 0.03 | 100 | 1012.8 |
| 20260504223933 | 23 | 0 | 0.0 | 1.6 | 0.00 | 0.05 | 0.03 | 100 | 1012.8 |
| 20260504223433 | 22 | 0 | 0.0 | 3.2 | 0.00 | 0.05 | 0.03 | 100 | 1012.8 |
| 20260504222934 | 22 | 0 | 0.0 | 3.2 | 0.00 | 0.05 | 0.03 | 100 | 1012.9 |
| 20260504222433 | 22 | 0 | 0.0 | 3.2 | 0.00 | 0.05 | 0.03 | 100 | 1012.9 |
| 20260504221934 | 22 | 0 | 0.0 | 3.2 | 0.00 | 0.05 | 0.03 | 100 | 1012.9 |
| 20260504221433 | 21 | 0 | 0.0 | 4.8 | 0.00 | 0.05 | 0.03 | 100 | 1012.8 |
| 20260504220933 | 21 | 0 | 0.0 | 4.8 | 0.00 | 0.05 | 0.03 | 100 | 1012.8 |
| 20260504220433 | 21 | 0 | 0.0 | 0.0 | 0.00 | 0.05 | 0.03 | 99 | 1012.8 |
| 20260504215933 | 21 | 0 | 0.0 | 4.8 | 0.00 | 0.05 | 0.03 | 100 | 1012.8 |
| 20260504215433 | 21 | 0 | 0.0 | 4.8 | 0.00 | 0.05 | 0.03 | 100 | 1012.8 |
| 20260504214934 | 21 | 0 | 0.0 | 1.6 | 0.00 | 0.05 | 0.03 | 99 | 1012.8 |
| 20260504214434 | 20 | 0 | 0.0 | 1.6 | 0.00 | 0.05 | 0.03 | 99 | 1012.7 |
| 20260504213933 | 20 | 0 | 0.0 | 0.0 | 0.00 | 0.05 | 0.03 | 99 | 1012.7 |
| 20260504213434 | 20 | 0 | 0.0 | 1.6 | 0.00 | 0.05 | 0.03 | 99 | 1012.7 |
| 20260504212933 | 20 | 0 | 0.0 | 1.6 | 0.00 | 0.05 | 0.03 | 99 | 1012.6 |
| 20260504212433 | 20 | 0 | 0.0 | 0.0 | 0.00 | 0.05 | 0.03 | 99 | 1012.6 |
| 20260504211933 | 20 | 0 | 0.0 | 0.0 | 0.00 | 0.05 | 0.03 | 99 | 1012.6 |
| 20260504211433 | 19 | 0 | 0.0 | 0.0 | 0.00 | 0.05 | 0.03 | 99 | 1012.4 |
| 20260504210933 | 19 | 0 | 0.0 | 0.0 | 0.00 | 0.05 | 0.03 | 99 | 1012.4 |
| 20260504210434 | 19 | 0 | 0.0 | 0.0 | 0.00 | 0.05 | 0.03 | 99 | 1012.4 |
| 20260504205933 | 19 | 0 | 0.0 | 0.0 | 0.00 | 0.05 | 0.03 | 98 | 1012.3 |
| 20260504205434 | 18 | 0 | 0.0 | 0.0 | 0.03 | 0.05 | 0.03 | 98 | 1012.3 |
| 20260504204934 | 18 | 0 | 0.0 | 0.0 | 0.03 | 0.05 | 0.03 | 98 | 1012.3 |
| 20260504204434 | 18 | 0 | 0.0 | 0.0 | 0.03 | 0.05 | 0.03 | 98 | 1012.1 |
| 20260504203934 | 18 | 0 | 0.0 | 0.0 | 0.03 | 0.05 | 0.03 | 98 | 1012.1 |
| 20260504203434 | 18 | 0 | 0.0 | 0.0 | 0.03 | 0.05 | 0.03 | 98 | 1012.1 |
| 20260504202933 | 18 | 0 | 0.0 | 0.0 | 0.03 | 0.05 | 0.03 | 98 | 1011.9 |
| 20260504202433 | 18 | 0 | 0.0 | 0.0 | 0.03 | 0.05 | 0.03 | 98 | 1011.9 |
| 20260504201933 | 18 | 0 | 0.0 | 0.0 | 0.03 | 0.05 | 0.03 | 98 | 1011.9 |
| 20260504201434 | 19 | 0 | 0.0 | 0.0 | 0.03 | 0.05 | 0.03 | 98 | 1011.8 |
| 20260504200934 | 19 | 0 | 0.0 | 0.0 | 0.03 | 0.05 | 0.03 | 98 | 1011.8 |
| 20260504200433 | 19 | 0 | 0.0 | 0.0 | 0.03 | 0.05 | 0.03 | 98 | 1011.8 |
| 20260504195933 | 19 | 0 | 0.0 | 0.0 | 0.03 | 0.05 | 0.03 | 98 | 1011.6 |
| 20260504195434 | 19 | 0 | 0.0 | 0.0 | 0.00 | 0.03 | 0.00 | 98 | 1011.6 |
| 20260504194934 | 19 | 0 | 0.0 | 0.0 | 0.00 | 0.03 | 0.00 | 98 | 1011.6 |
| 20260504194433 | 19 | 0 | 0.0 | 0.0 | 0.00 | 0.03 | 0.00 | 98 | 1011.5 |
| 20260504193934 | 19 | 0 | 0.0 | 0.0 | 0.00 | 0.03 | 0.00 | 98 | 1011.5 |
| 20260504193433 | 19 | 0 | 0.0 | 0.0 | 0.00 | 0.03 | 0.00 | 98 | 1011.5 |
| 20260504192933 | 20 | 0 | 0.0 | 0.0 | 0.00 | 0.03 | 0.00 | 98 | 1011.4 |
| 20260504192434 | 20 | 0 | 0.0 | 0.0 | 0.00 | 0.03 | 0.00 | 98 | 1011.4 |
| 20260504191934 | 20 | 0 | 0.0 | 0.0 | 0.00 | 0.03 | 0.00 | 98 | 1011.4 |
| 20260504191434 | 20 | 0 | 0.0 | 0.0 | 0.00 | 0.03 | 0.00 | 98 | 1011.3 |
| 20260504190934 | 20 | 0 | 0.0 | 0.0 | 0.00 | 0.03 | 0.00 | 98 | 1011.3 |
| 20260504190434 | 20 | 0 | 0.0 | 0.0 | 0.00 | 0.03 | 0.00 | 98 | 1011.3 |
| 20260504185933 | 20 | 0 | 0.0 | 0.0 | 0.00 | 0.03 | 0.00 | 98 | 1011.2 |
| 20260504185434 | 20 | 0 | 0.0 | 0.0 | 0.00 | 0.03 | 0.00 | 98 | 1011.2 |
| 20260504184934 | 20 | 0 | 0.0 | 0.0 | 0.00 | 0.03 | 0.00 | 98 | 1011.2 |
| 20260504184432 | 20 | 0 | 0.0 | 0.0 | 0.00 | 0.03 | 0.00 | 98 | 1011.2 |
| 20260504183934 | 20 | 0 | 0.0 | 0.0 | 0.00 | 0.03 | 0.00 | 98 | 1011.2 |
| 20260504183433 | 20 | 0 | 0.0 | 0.0 | 0.00 | 0.03 | 0.00 | 98 | 1011.2 |
| 20260504182932 | 20 | 0 | 0.0 | 0.0 | 0.00 | 0.03 | 0.00 | 97 | 1011.2 |
| 20260504182433 | 20 | 0 | 0.0 | 0.0 | 0.00 | 0.03 | 0.00 | 97 | 1011.2 |
| 20260504181932 | 20 | 0 | 0.0 | 0.0 | 0.00 | 0.03 | 0.00 | 97 | 1011.2 |
| 20260504181433 | 20 | 0 | 0.0 | 0.0 | 0.00 | 0.05 | 0.00 | 97 | 1011.1 |
| 20260504180933 | 20 | 0 | 0.0 | 0.0 | 0.00 | 0.05 | 0.00 | 97 | 1011.1 |
| 20260504180434 | 20 | 0 | 0.0 | 0.0 | 0.00 | 0.05 | 0.00 | 97 | 1011.1 |
| 20260504175933 | 20 | 0 | 0.0 | 0.0 | 0.00 | 0.05 | 0.00 | 97 | 1011.2 |
| 20260504175433 | 20 | 0 | 0.0 | 0.0 | 0.00 | 0.05 | 0.00 | 97 | 1011.2 |
| 20260504174934 | 20 | 0 | 0.0 | 0.0 | 0.00 | 0.05 | 0.00 | 97 | 1011.2 |
| 20260504174433 | 20 | 0 | 0.0 | 0.0 | 0.00 | 0.05 | 0.00 | 97 | 1011.1 |
| 20260504173934 | 20 | 0 | 0.0 | 0.0 | 0.00 | 0.05 | 0.00 | 97 | 1011.1 |
| 20260504173435 | 20 | 0 | 0.0 | 0.0 | 0.00 | 0.05 | 0.00 | 97 | 1011.1 |
| 20260504172933 | 20 | 0 | 0.0 | 0.0 | 0.00 | 0.05 | 0.00 | 97 | 1011.1 |
| 20260504172434 | 20 | 0 | 0.0 | 0.0 | 0.00 | 0.05 | 0.00 | 97 | 1011.1 |
| 20260504171933 | 20 | 0 | 0.0 | 0.0 | 0.00 | 0.05 | 0.00 | 97 | 1011.1 |
| 20260504171433 | 20 | 0 | 0.0 | 0.0 | 0.00 | 0.05 | 0.00 | 97 | 1011.0 |
| 20260504170934 | 20 | 0 | 0.0 | 0.0 | 0.00 | 0.05 | 0.00 | 97 | 1011.0 |
| 20260504170434 | 20 | 0 | 0.0 | 0.0 | 0.00 | 0.05 | 0.00 | 97 | 1011.0 |
| 20260504160432 | 21 | 0 | 0.0 | 0.0 | 0.00 | 0.20 | 0.00 | 97 | 1011.3 |
| 20260504150935 | 21 | 0 | 0.0 | 0.0 | 0.00 | 0.20 | 0.00 | 96 | 1011.9 |
| 20260504150433 | 21 | 0 | 0.0 | 0.0 | 0.00 | 0.20 | 0.00 | 96 | 1011.9 |
| 20260504140935 | 21 | 0 | 0.0 | 0.0 | 0.03 | 0.20 | 0.00 | 96 | 1012.3 |
| 20260504140630 | 21 | 0 | 0.0 | 0.0 | 0.03 | 0.20 | 0.00 | 96 | 1012.3 |
| 20260504140129 | 21 | 0 | 0.0 | 0.0 | 0.03 | 0.20 | 0.00 | 96 | 1012.3 |
| 20260504130628 | 21 | 0 | 0.0 | 0.0 | 0.00 | 0.18 | 0.18 | 95 | 1012.5 |
| 20260504130128 | 21 | 0 | 0.0 | 0.0 | 0.00 | 0.18 | 0.18 | 95 | 1012.5 |
| 20260504120129 | 22 | 0 | 0.0 | 0.0 | 0.00 | 0.18 | 0.18 | 94 | 1012.9 |
| 20260504110628 | 22 | 0 | 0.0 | 0.0 | 0.00 | 0.18 | 0.18 | 93 | 1013.4 |
| 20260504110130 | 22 | 0 | 0.0 | 0.0 | 0.00 | 0.18 | 0.18 | 93 | 1013.4 |
| 20260504100129 | 22 | 0 | 0.0 | 0.0 | 0.00 | 0.18 | 0.18 | 92 | 1013.2 |
| 20260504090129 | 22 | 0 | 0.0 | 0.0 | 0.00 | 0.18 | 0.18 | 91 | 1012.8 |
| 20260504081629 | 23 | 0 | 0.0 | 0.0 | 0.00 | 0.18 | 0.18 | 90 | 1012.3 |
| 20260504081130 | 23 | 0 | 0.0 | 0.0 | 0.00 | 0.18 | 0.18 | 90 | 1012.0 |
| 20260504080629 | 23 | 0 | 0.0 | 0.0 | 0.00 | 0.18 | 0.18 | 90 | 1012.0 |
| 20260504080128 | 23 | 0 | 0.0 | 0.0 | 0.00 | 0.18 | 0.18 | 89 | 1012.0 |
| 20260504070131 | 25 | 0 | 0.0 | 0.0 | 0.00 | 0.18 | 0.18 | 86 | 1011.5 |
| 20260504060130 | 26 | 0 | 0.0 | 1.6 | 0.00 | 0.18 | 0.18 | 82 | 1011.3 |
| 20260504050630 | 27 | 0 | 0.0 | 4.8 | 0.00 | 0.18 | 0.18 | 78 | 1011.2 |
| 20260504050129 | 27 | 0 | 0.0 | 3.2 | 0.00 | 0.18 | 0.18 | 78 | 1011.2 |
| 20260504045630 | 27 | 134 | 1.6 | 6.4 | 0.00 | 0.18 | 0.18 | 78 | 1011.2 |
| 20260504045130 | 27 | 128 | 1.6 | 6.4 | 0.00 | 0.18 | 0.18 | 77 | 1011.2 |
| 20260504044631 | 27 | 118 | 1.6 | 4.8 | 0.00 | 0.18 | 0.18 | 77 | 1011.2 |
| 20260504044129 | 27 | 0 | 0.0 | 4.8 | 0.00 | 0.18 | 0.18 | 77 | 1011.2 |
| 20260504043630 | 27 | 0 | 0.0 | 4.8 | 0.00 | 0.18 | 0.18 | 78 | 1011.2 |
| 20260504043129 | 27 | 0 | 0.0 | 4.8 | 0.00 | 0.18 | 0.18 | 77 | 1011.2 |
| 20260504042629 | 28 | 0 | 0.0 | 6.4 | 0.00 | 0.18 | 0.18 | 76 | 1011.3 |
| 20260504042131 | 28 | 0 | 0.0 | 6.4 | 0.00 | 0.18 | 0.18 | 77 | 1011.3 |
| 20260504041632 | 28 | 0 | 0.0 | 3.2 | 0.00 | 0.18 | 0.18 | 79 | 1011.3 |
| 20260504041130 | 28 | 0 | 0.0 | 3.2 | 0.00 | 0.18 | 0.18 | 79 | 1011.3 |
| 20260504040630 | 27 | 0 | 0.0 | 1.6 | 0.00 | 0.18 | 0.18 | 80 | 1011.3 |
| 20260504040129 | 27 | 0 | 0.0 | 3.2 | 0.00 | 0.18 | 0.18 | 80 | 1011.3 |
| 20260504035630 | 27 | 0 | 0.0 | 4.8 | 0.00 | 0.18 | 0.18 | 80 | 1011.3 |
| 20260504035129 | 27 | 0 | 0.0 | 4.8 | 0.00 | 0.18 | 0.18 | 80 | 1011.3 |
| 20260504034631 | 27 | 0 | 0.0 | 3.2 | 0.00 | 0.18 | 0.18 | 80 | 1011.3 |
| 20260504034131 | 27 | 0 | 0.0 | 4.8 | 0.00 | 0.18 | 0.18 | 81 | 1011.4 |
| 20260504033629 | 27 | 0 | 0.0 | 4.8 | 0.00 | 0.18 | 0.18 | 80 | 1011.4 |
| 20260504033130 | 27 | 0 | 0.0 | 4.8 | 0.00 | 0.18 | 0.18 | 80 | 1011.4 |
| 20260504032629 | 27 | 0 | 0.0 | 4.8 | 0.00 | 0.18 | 0.18 | 80 | 1011.5 |
| 20260504032129 | 27 | 0 | 0.0 | 4.8 | 0.00 | 0.18 | 0.18 | 80 | 1011.5 |
| 20260504031631 | 27 | 0 | 0.0 | 4.8 | 0.00 | 0.18 | 0.18 | 80 | 1011.5 |
| 20260504031129 | 27 | 0 | 0.0 | 4.8 | 0.00 | 0.18 | 0.18 | 80 | 1011.8 |
| 20260504030629 | 27 | 0 | 0.0 | 4.8 | 0.00 | 0.18 | 0.18 | 80 | 1011.8 |
| 20260504030130 | 27 | 0 | 0.0 | 11.3 | 0.00 | 0.18 | 0.18 | 80 | 1011.8 |
| 20260504025630 | 27 | 133 | 1.6 | 11.3 | 0.00 | 0.18 | 0.18 | 80 | 1011.9 |
| 20260504025130 | 27 | 128 | 1.6 | 8.0 | 0.00 | 0.18 | 0.18 | 81 | 1011.9 |
| 20260504024629 | 27 | 126 | 1.6 | 6.4 | 0.00 | 0.18 | 0.18 | 80 | 1011.9 |
| 20260504024130 | 27 | 0 | 0.0 | 4.8 | 0.00 | 0.18 | 0.18 | 81 | 1012.2 |
| 20260504023630 | 27 | 0 | 0.0 | 4.8 | 0.00 | 0.18 | 0.18 | 83 | 1012.2 |
| 20260504023129 | 27 | 0 | 0.0 | 3.2 | 0.00 | 0.18 | 0.18 | 82 | 1012.2 |
| 20260504022630 | 27 | 0 | 0.0 | 6.4 | 0.00 | 0.18 | 0.18 | 83 | 1012.3 |
| 20260504022131 | 27 | 0 | 0.0 | 6.4 | 0.00 | 0.18 | 0.18 | 83 | 1012.3 |
| 20260504021630 | 26 | 0 | 0.0 | 4.8 | 0.00 | 0.18 | 0.18 | 84 | 1012.3 |
| 20260504021129 | 26 | 0 | 0.0 | 6.4 | 0.00 | 0.18 | 0.18 | 85 | 1012.4 |
| 20260504020630 | 26 | 0 | 0.0 | 8.0 | 0.00 | 0.18 | 0.18 | 85 | 1012.4 |
| 20260504020131 | 26 | 0 | 0.0 | 8.0 | 0.00 | 0.18 | 0.18 | 85 | 1012.4 |
| 20260504015630 | 26 | 113 | 1.6 | 6.4 | 0.00 | 0.18 | 0.18 | 85 | 1012.7 |
| 20260504015129 | 26 | 132 | 1.6 | 4.8 | 0.00 | 0.18 | 0.18 | 86 | 1012.7 |
| 20260504014629 | 26 | 147 | 1.6 | 6.4 | 0.00 | 0.18 | 0.18 | 87 | 1012.7 |
| 20260504014130 | 26 | 161 | 1.6 | 6.4 | 0.00 | 0.18 | 0.18 | 87 | 1012.9 |
| 20260504013629 | 26 | 0 | 0.0 | 6.4 | 0.00 | 0.18 | 0.18 | 88 | 1012.9 |
| 20260504013130 | 26 | 0 | 0.0 | 4.8 | 0.00 | 0.18 | 0.18 | 89 | 1012.9 |
| 20260504012631 | 26 | 0 | 0.0 | 4.8 | 0.00 | 0.18 | 0.18 | 89 | 1013.1 |
| 20260504012129 | 26 | 0 | 0.0 | 3.2 | 0.00 | 0.18 | 0.18 | 90 | 1013.1 |
| 20260504011630 | 26 | 0 | 0.0 | 3.2 | 0.00 | 0.18 | 0.18 | 90 | 1013.1 |
| 20260504011130 | 26 | 0 | 0.0 | 8.0 | 0.00 | 0.18 | 0.18 | 91 | 1013.3 |
| 20260504010629 | 26 | 0 | 0.0 | 8.0 | 0.00 | 0.18 | 0.18 | 91 | 1013.3 |
| 20260504010130 | 26 | 0 | 0.0 | 6.4 | 0.00 | 0.18 | 0.18 | 90 | 1013.3 |
| 20260504005629 | 26 | 0 | 0.0 | 6.4 | 0.00 | 0.18 | 0.18 | 92 | 1013.3 |
| 20260504005129 | 26 | 125 | 1.6 | 4.8 | 0.00 | 0.18 | 0.18 | 93 | 1013.3 |
| 20260504004629 | 26 | 145 | 1.6 | 6.4 | 0.00 | 0.18 | 0.18 | 93 | 1013.3 |
| 20260504004130 | 26 | 0 | 0.0 | 6.4 | 0.00 | 0.18 | 0.18 | 95 | 1013.5 |